Time,TemperatureF,DewpointF,PressureIn,WindDirection,WindDirectionDegrees,WindSpeedMPH,WindSpeedGustMPH,Humidity,HourlyPrecipIn,Conditions,Clouds,dailyrainin,SoftwareType,DateUTC
2013-09-21 00:05:00,74.3,39.0,-100.00,SSW,210,7.0,16.0,28,0.00,,,0.00,meteohub,2013-09-21 07:05:00,
2013-09-21 00:10:00,74.1,39.9,-100.00,SSW,198,7.0,17.0,29,0.00,,,0.00,meteohub,2013-09-21 07:10:00,
2013-09-21 00:15:00,73.9,39.7,-100.00,SW,217,7.0,17.0,29,0.00,,,0.00,meteohub,2013-09-21 07:15:00,
2013-09-21 00:20:00,73.8,39.6,-100.00,WSW,245,10.0,18.0,29,0.00,,,0.00,meteohub,2013-09-21 07:20:00,
2013-09-21 00:25:00,73.8,39.6,-100.00,SSW,202,7.0,18.0,29,0.00,,,0.00,meteohub,2013-09-21 07:25:00,
2013-09-21 00:30:00,73.8,40.5,-100.00,SW,227,11.0,19.0,30,0.00,,,0.00,meteohub,2013-09-21 07:30:00,
2013-09-21 00:35:00,73.6,40.3,-100.00,SW,218,13.0,22.0,30,0.00,,,0.00,meteohub,2013-09-21 07:35:00,
2013-09-21 00:40:00,73.6,39.4,-100.00,WSW,240,19.0,22.0,29,0.00,,,0.00,meteohub,2013-09-21 07:40:00,
2013-09-21 00:45:00,73.6,39.4,-100.00,SW,218,7.0,22.0,29,0.00,,,0.00,meteohub,2013-09-21 07:45:00,
2013-09-21 00:50:00,73.6,39.4,-100.00,WSW,238,9.0,21.0,29,0.00,,,0.00,meteohub,2013-09-21 07:50:00,
2013-09-21 00:55:00,73.8,39.6,-100.00,SW,225,10.0,21.0,29,0.00,,,0.00,meteohub,2013-09-21 07:55:00,
2013-09-21 01:00:00,73.6,39.4,-100.00,SW,228,7.0,20.0,29,0.00,,,0.00,meteohub,2013-09-21 08:00:00,
2013-09-21 01:05:00,73.4,40.1,-100.00,SW,236,13.0,19.0,30,0.00,,,0.00,meteohub,2013-09-21 08:05:00,
2013-09-21 01:10:00,73.2,39.9,-100.00,SW,228,13.0,17.0,30,0.00,,,0.00,meteohub,2013-09-21 08:10:00,
2013-09-21 01:15:00,73.0,39.7,-100.00,SW,236,9.0,17.0,30,0.00,,,0.00,meteohub,2013-09-21 08:15:00,
2013-09-21 01:20:00,73.0,39.7,-100.00,WSW,239,18.0,21.0,30,0.00,,,0.00,meteohub,2013-09-21 08:20:00,
2013-09-21 01:25:00,73.2,39.9,-100.00,SW,215,13.0,22.0,30,0.00,,,0.00,meteohub,2013-09-21 08:25:00,
2013-09-21 01:30:00,73.2,39.9,-100.00,WSW,239,8.0,22.0,30,0.00,,,0.00,meteohub,2013-09-21 08:30:00,
2013-09-21 01:35:00,73.2,39.0,-100.00,SW,219,15.0,22.0,29,0.00,,,0.00,meteohub,2013-09-21 08:35:00,
2013-09-21 01:40:00,73.2,39.0,-100.00,SW,236,16.0,20.0,29,0.00,,,0.00,meteohub,2013-09-21 08:40:00,
2013-09-21 01:45:00,73.0,38.8,-100.00,SW,236,7.0,20.0,29,0.00,,,0.00,meteohub,2013-09-21 08:45:00,
2013-09-21 01:51:00,72.9,39.6,-100.00,SW,219,16.0,20.0,30,0.00,,,0.00,meteohub,2013-09-21 08:51:00,
2013-09-21 01:56:00,72.9,39.6,-100.00,WSW,241,11.0,19.0,30,0.00,,,0.00,meteohub,2013-09-21 08:56:00,
2013-09-21 02:01:00,72.9,39.6,-100.00,SW,229,9.0,20.0,30,0.00,,,0.00,meteohub,2013-09-21 09:01:00,
2013-09-21 02:06:00,72.7,39.4,-100.00,SW,232,15.0,20.0,30,0.00,,,0.00,meteohub,2013-09-21 09:06:00,
2013-09-21 02:11:00,72.7,39.4,-100.00,SW,221,8.0,20.0,30,0.00,,,0.00,meteohub,2013-09-21 09:11:00,
2013-09-21 02:16:00,72.5,40.1,-100.00,WSW,238,13.0,19.0,31,0.00,,,0.00,meteohub,2013-09-21 09:16:00,
2013-09-21 02:21:00,72.5,40.1,-100.00,WSW,237,13.0,19.0,31,0.00,,,0.00,meteohub,2013-09-21 09:21:00,
2013-09-21 02:26:00,72.5,40.1,-100.00,WSW,240,13.0,18.0,31,0.00,,,0.00,meteohub,2013-09-21 09:26:00,
2013-09-21 02:31:00,72.5,40.1,-100.00,SW,234,13.0,19.0,31,0.00,,,0.00,meteohub,2013-09-21 09:31:00,
2013-09-21 02:36:00,72.3,39.9,-100.00,SW,227,10.0,19.0,31,0.00,,,0.00,meteohub,2013-09-21 09:36:00,
2013-09-21 02:41:00,72.3,39.9,-100.00,SW,227,7.0,19.0,31,0.00,,,0.00,meteohub,2013-09-21 09:41:00,
2013-09-21 02:46:00,72.3,39.9,-100.00,SSW,212,17.0,21.0,31,0.00,,,0.00,meteohub,2013-09-21 09:46:00,
2013-09-21 02:51:00,72.1,39.9,-100.00,SW,233,9.0,21.0,31,0.00,,,0.00,meteohub,2013-09-21 09:51:00,
2013-09-21 02:56:00,72.1,39.9,-100.00,SW,225,16.0,21.0,31,0.00,,,0.00,meteohub,2013-09-21 09:56:00,
2013-09-21 03:01:00,72.1,39.9,-100.00,SW,217,9.0,21.0,31,0.00,,,0.00,meteohub,2013-09-21 10:01:00,
2013-09-21 03:06:00,72.0,39.7,-100.00,SSW,208,14.0,21.0,31,0.00,,,0.00,meteohub,2013-09-21 10:06:00,
2013-09-21 03:11:00,71.8,40.3,-100.00,SW,225,16.0,21.0,32,0.00,,,0.00,meteohub,2013-09-21 10:11:00,
2013-09-21 03:16:00,71.8,40.3,-100.00,SW,229,8.0,19.0,32,0.00,,,0.00,meteohub,2013-09-21 10:16:00,
2013-09-21 03:21:00,71.6,40.1,-100.00,WSW,237,14.0,19.0,32,0.00,,,0.00,meteohub,2013-09-21 10:21:00,
2013-09-21 03:26:00,71.4,40.1,-100.00,SW,217,10.0,19.0,32,0.00,,,0.00,meteohub,2013-09-21 10:26:00,
2013-09-21 03:31:00,71.4,40.1,-100.00,SW,227,12.0,20.0,32,0.00,,,0.00,meteohub,2013-09-21 10:31:00,
2013-09-21 03:36:00,71.2,40.6,-100.00,SSW,211,11.0,20.0,33,0.00,,,0.00,meteohub,2013-09-21 10:36:00,
2013-09-21 03:41:00,71.2,40.6,-100.00,SW,217,11.0,20.0,33,0.00,,,0.00,meteohub,2013-09-21 10:41:00,
2013-09-21 03:46:00,71.2,40.6,-100.00,SW,221,6.0,19.0,33,0.00,,,0.00,meteohub,2013-09-21 10:46:00,
2013-09-21 03:51:00,71.2,40.6,-100.00,WSW,241,13.0,21.0,33,0.00,,,0.00,meteohub,2013-09-21 10:51:00,
2013-09-21 03:56:00,71.4,40.8,-100.00,SW,223,17.0,22.0,33,0.00,,,0.00,meteohub,2013-09-21 10:56:00,
2013-09-21 04:01:00,71.6,40.1,-100.00,SSW,213,13.0,22.0,32,0.00,,,0.00,meteohub,2013-09-21 11:01:00,
2013-09-21 04:06:00,71.6,40.1,-100.00,SW,232,4.0,22.0,32,0.00,,,0.00,meteohub,2013-09-21 11:06:00,
2013-09-21 04:11:00,71.4,40.8,-100.00,SW,221,15.0,22.0,33,0.00,,,0.00,meteohub,2013-09-21 11:11:00,
2013-09-21 04:16:00,71.2,40.6,-100.00,SSW,212,13.0,19.0,33,0.00,,,0.00,meteohub,2013-09-21 11:16:00,
2013-09-21 04:21:00,71.2,40.6,-100.00,SSW,205,17.0,19.0,33,0.00,,,0.00,meteohub,2013-09-21 11:21:00,
2013-09-21 04:26:00,71.2,40.6,-100.00,SSW,213,10.0,18.0,33,0.00,,,0.00,meteohub,2013-09-21 11:26:00,
2013-09-21 04:31:00,71.2,40.6,-100.00,SW,222,9.0,19.0,33,0.00,,,0.00,meteohub,2013-09-21 11:31:00,
2013-09-21 04:36:00,71.1,40.5,-100.00,SSW,213,9.0,19.0,33,0.00,,,0.00,meteohub,2013-09-21 11:36:00,
2013-09-21 04:41:00,71.1,40.5,-100.00,SSW,197,10.0,17.0,33,0.00,,,0.00,meteohub,2013-09-21 11:41:00,
2013-09-21 04:46:00,70.9,40.3,-100.00,SSW,209,8.0,17.0,33,0.00,,,0.00,meteohub,2013-09-21 11:46:00,
2013-09-21 04:51:00,71.1,40.5,-100.00,SSW,201,9.0,17.0,33,0.00,,,0.00,meteohub,2013-09-21 11:51:00,
2013-09-21 04:56:00,71.1,40.5,-100.00,SSW,196,6.0,16.0,33,0.00,,,0.00,meteohub,2013-09-21 11:56:00,
2013-09-21 05:01:00,70.9,40.3,-100.00,SSW,207,8.0,16.0,33,0.00,,,0.00,meteohub,2013-09-21 12:01:00,
2013-09-21 05:06:00,70.7,40.1,-100.00,SSW,192,9.0,16.0,33,0.00,,,0.00,meteohub,2013-09-21 12:06:00,
2013-09-21 05:11:00,70.3,40.6,-100.00,SSW,207,9.0,16.0,34,0.00,,,0.00,meteohub,2013-09-21 12:11:00,
2013-09-21 05:16:00,70.2,40.5,-100.00,SSW,199,7.0,15.0,34,0.00,,,0.00,meteohub,2013-09-21 12:16:00,
2013-09-21 05:21:00,70.0,41.0,-100.00,SSW,210,7.0,15.0,35,0.00,,,0.00,meteohub,2013-09-21 12:21:00,
2013-09-21 05:26:00,69.6,40.8,-100.00,SSW,211,3.0,14.0,35,0.00,,,0.00,meteohub,2013-09-21 12:26:00,
2013-09-21 05:31:00,69.4,40.6,-100.00,SSW,192,5.0,14.0,35,0.00,,,0.00,meteohub,2013-09-21 12:31:00,
2013-09-21 05:36:00,69.3,40.5,-100.00,South,186,8.0,11.0,35,0.00,,,0.00,meteohub,2013-09-21 12:36:00,
2013-09-21 05:41:00,69.1,40.3,-100.00,SSW,200,6.0,15.0,35,0.00,,,0.00,meteohub,2013-09-21 12:41:00,
2013-09-21 05:46:00,69.1,41.0,-100.00,SW,215,11.0,15.0,36,0.00,,,0.00,meteohub,2013-09-21 12:46:00,
2013-09-21 05:51:00,68.7,40.6,-100.00,SSW,196,8.0,15.0,36,0.00,,,0.00,meteohub,2013-09-21 12:51:00,
2013-09-21 05:56:00,68.7,40.6,-100.00,SSW,199,4.0,14.0,36,0.00,,,0.00,meteohub,2013-09-21 12:56:00,
2013-09-21 06:01:00,68.7,40.6,-100.00,SSW,198,16.0,16.0,36,0.00,,,0.00,meteohub,2013-09-21 13:01:00,
2013-09-21 06:06:00,68.7,40.6,-100.00,SSW,211,3.0,17.0,36,0.00,,,0.00,meteohub,2013-09-21 13:06:00,
2013-09-21 06:11:00,68.7,40.6,-100.00,SSW,200,9.0,17.0,36,0.00,,,0.00,meteohub,2013-09-21 13:11:00,
2013-09-21 06:16:00,68.7,41.4,-100.00,SSW,209,8.0,16.0,37,0.00,,,0.00,meteohub,2013-09-21 13:16:00,
2013-09-21 06:21:00,68.7,41.4,-100.00,SSW,208,9.0,14.0,37,0.00,,,0.00,meteohub,2013-09-21 13:21:00,
2013-09-21 06:26:00,68.7,40.6,-100.00,SSW,209,10.0,20.0,36,0.00,,,0.00,meteohub,2013-09-21 13:26:00,
2013-09-21 06:31:00,68.9,40.8,-100.00,SSW,207,10.0,20.0,36,0.00,,,0.00,meteohub,2013-09-21 13:31:00,
2013-09-21 06:36:00,69.1,41.0,-100.00,SSW,209,8.0,20.0,36,0.00,,,0.00,meteohub,2013-09-21 13:36:00,
2013-09-21 06:41:00,69.1,41.0,-100.00,SSW,192,9.0,18.0,36,0.00,,,0.00,meteohub,2013-09-21 13:41:00,
2013-09-21 06:46:00,69.1,41.0,-100.00,SSW,204,8.0,18.0,36,0.00,,,0.00,meteohub,2013-09-21 13:46:00,
2013-09-21 06:51:00,69.3,41.2,-100.00,SW,227,14.0,18.0,36,0.00,,,0.00,meteohub,2013-09-21 13:51:00,
2013-09-21 06:56:00,69.3,41.2,-100.00,SSW,206,6.0,20.0,36,0.00,,,0.00,meteohub,2013-09-21 13:56:00,
2013-09-21 07:01:00,69.3,41.2,-100.00,South,187,9.0,20.0,36,0.00,,,0.00,meteohub,2013-09-21 14:01:00,
2013-09-21 07:06:00,69.4,41.4,-100.00,SSW,192,15.0,21.0,36,0.00,,,0.00,meteohub,2013-09-21 14:06:00,
2013-09-21 07:11:00,69.6,41.5,-100.00,SSW,196,13.0,22.0,36,0.00,,,0.00,meteohub,2013-09-21 14:11:00,
2013-09-21 07:17:00,70.0,41.0,-100.00,SSW,210,13.0,23.0,35,0.00,,,0.00,meteohub,2013-09-21 14:17:00,
2013-09-21 07:22:00,70.5,41.5,-100.00,SSW,200,20.0,23.0,35,0.00,,,0.00,meteohub,2013-09-21 14:22:00,
2013-09-21 07:27:00,70.7,41.7,-100.00,South,191,13.0,23.0,35,0.00,,,0.00,meteohub,2013-09-21 14:27:00,
2013-09-21 07:32:00,70.7,41.7,-100.00,SW,223,14.0,23.0,35,0.00,,,0.00,meteohub,2013-09-21 14:32:00,
2013-09-21 07:37:00,70.9,41.9,-100.00,SSW,209,8.0,23.0,35,0.00,,,0.00,meteohub,2013-09-21 14:37:00,
2013-09-21 07:42:00,70.9,41.9,-100.00,SSW,210,14.0,23.0,35,0.00,,,0.00,meteohub,2013-09-21 14:42:00,
2013-09-21 07:47:00,71.4,42.3,-100.00,SSW,194,9.0,19.0,35,0.00,,,0.00,meteohub,2013-09-21 14:47:00,
2013-09-21 07:52:00,71.8,41.9,-100.00,SW,217,14.0,20.0,34,0.00,,,0.00,meteohub,2013-09-21 14:52:00,
2013-09-21 07:57:00,71.8,41.9,-100.00,South,190,13.0,21.0,34,0.00,,,0.00,meteohub,2013-09-21 14:57:00,
2013-09-21 08:02:00,71.8,41.9,-100.00,SW,219,10.0,21.0,34,0.00,,,0.00,meteohub,2013-09-21 15:02:00,
2013-09-21 08:07:00,72.0,42.1,-100.00,SSW,205,14.0,21.0,34,0.00,,,0.00,meteohub,2013-09-21 15:07:00,
2013-09-21 08:13:00,72.9,41.4,-100.00,SSW,206,11.0,22.0,32,0.00,,,0.00,meteohub,2013-09-21 15:13:00,
2013-09-21 08:18:00,73.2,41.5,-100.00,SW,216,13.0,22.0,32,0.00,,,0.00,meteohub,2013-09-21 15:18:00,
2013-09-21 08:23:00,73.2,41.5,-100.00,SSW,197,15.0,22.0,32,0.00,,,0.00,meteohub,2013-09-21 15:23:00,
2013-09-21 08:28:00,73.4,41.7,-100.00,SSW,205,16.0,22.0,32,0.00,,,0.00,meteohub,2013-09-21 15:28:00,
2013-09-21 08:34:00,73.8,42.1,-100.00,SSW,213,11.0,22.0,32,0.00,,,0.00,meteohub,2013-09-21 15:34:00,
2013-09-21 08:39:00,74.1,42.4,-100.00,SSW,210,7.0,22.0,32,0.00,,,0.00,meteohub,2013-09-21 15:39:00,
2013-09-21 08:44:00,74.1,41.5,-100.00,SSW,204,13.0,22.0,31,0.00,,,0.00,meteohub,2013-09-21 15:44:00,
2013-09-21 08:49:00,74.1,41.5,-100.00,SSW,207,15.0,22.0,31,0.00,,,0.00,meteohub,2013-09-21 15:49:00,
2013-09-21 08:54:00,74.1,41.5,-100.00,SW,219,8.0,22.0,31,0.00,,,0.00,meteohub,2013-09-21 15:54:00,
2013-09-21 08:59:00,74.5,41.9,-100.00,SSW,209,14.0,23.0,31,0.00,,,0.00,meteohub,2013-09-21 15:59:00,
2013-09-21 09:04:00,74.8,41.4,-100.00,SW,232,10.0,23.0,30,0.00,,,0.00,meteohub,2013-09-21 16:04:00,
2013-09-21 09:09:00,75.6,41.0,-100.00,SW,225,16.0,23.0,29,0.00,,,0.00,meteohub,2013-09-21 16:09:00,
2013-09-21 09:14:00,75.9,40.5,-100.00,SW,222,7.0,23.0,28,0.00,,,0.00,meteohub,2013-09-21 16:14:00,
2013-09-21 09:19:00,76.5,39.9,-100.00,SSW,198,8.0,21.0,27,0.00,,,0.00,meteohub,2013-09-21 16:19:00,
2013-09-21 09:24:00,76.8,40.3,-100.00,SW,225,14.0,22.0,27,0.00,,,0.00,meteohub,2013-09-21 16:24:00,
2013-09-21 09:29:00,77.4,40.8,-100.00,SW,223,16.0,22.0,27,0.00,,,0.00,meteohub,2013-09-21 16:29:00,
2013-09-21 09:34:00,77.7,40.1,-100.00,SW,226,14.0,22.0,26,0.00,,,0.00,meteohub,2013-09-21 16:34:00,
2013-09-21 09:39:00,78.3,39.6,-100.00,SW,226,10.0,22.0,25,0.00,,,0.00,meteohub,2013-09-21 16:39:00,
2013-09-21 09:44:00,78.6,39.9,-100.00,SSW,200,17.0,22.0,25,0.00,,,0.00,meteohub,2013-09-21 16:44:00,
2013-09-21 09:49:00,79.0,40.1,-100.00,SSW,194,13.0,26.0,25,0.00,,,0.00,meteohub,2013-09-21 16:49:00,
2013-09-21 09:54:00,79.2,39.2,-100.00,SSE,168,16.0,26.0,24,0.00,,,0.00,meteohub,2013-09-21 16:54:00,
2013-09-21 09:59:00,79.2,39.2,-100.00,South,187,11.0,26.0,24,0.00,,,0.00,meteohub,2013-09-21 16:59:00,
2013-09-21 10:04:00,79.3,39.4,-100.00,SSW,207,10.0,26.0,24,0.00,,,0.00,meteohub,2013-09-21 17:04:00,
2013-09-21 10:09:00,79.5,39.6,-100.00,South,188,10.0,26.0,24,0.00,,,0.00,meteohub,2013-09-21 17:09:00,
2013-09-21 10:14:00,79.5,39.6,-100.00,SSW,194,15.0,27.0,24,0.00,,,0.00,meteohub,2013-09-21 17:14:00,
2013-09-21 10:19:00,79.9,39.9,-100.00,SSW,202,13.0,27.0,24,0.00,,,0.00,meteohub,2013-09-21 17:19:00,
2013-09-21 10:24:00,79.9,39.9,-100.00,SSW,204,13.0,27.0,24,0.00,,,0.00,meteohub,2013-09-21 17:24:00,
2013-09-21 10:29:00,80.1,40.1,-100.00,SW,217,11.0,27.0,24,0.00,,,0.00,meteohub,2013-09-21 17:29:00,
2013-09-21 10:34:00,80.4,40.3,-100.00,SSW,209,19.0,27.0,24,0.00,,,0.00,meteohub,2013-09-21 17:34:00,
2013-09-21 10:39:00,80.4,40.3,-100.00,South,188,18.0,27.0,24,0.00,,,0.00,meteohub,2013-09-21 17:39:00,
2013-09-21 10:44:00,80.4,40.3,-100.00,SW,217,8.0,27.0,24,0.00,,,0.00,meteohub,2013-09-21 17:44:00,
2013-09-21 10:49:00,80.6,39.4,-100.00,South,191,18.0,25.0,23,0.00,,,0.00,meteohub,2013-09-21 17:49:00,
2013-09-21 10:54:00,81.0,39.7,-100.00,SSW,199,16.0,29.0,23,0.00,,,0.00,meteohub,2013-09-21 17:54:00,
2013-09-21 10:59:00,81.1,39.7,-100.00,SW,218,13.0,29.0,23,0.00,,,0.00,meteohub,2013-09-21 17:59:00,
2013-09-21 11:04:00,81.3,39.9,-100.00,SW,216,15.0,29.0,23,0.00,,,0.00,meteohub,2013-09-21 18:04:00,
2013-09-21 11:09:00,81.9,40.5,-100.00,SSW,203,15.0,30.0,23,0.00,,,0.00,meteohub,2013-09-21 18:09:00,
2013-09-21 11:14:00,82.0,39.4,-100.00,SSW,203,18.0,30.0,22,0.00,,,0.00,meteohub,2013-09-21 18:14:00,
2013-09-21 11:19:00,81.7,40.3,-100.00,SW,214,14.0,31.0,23,0.00,,,0.00,meteohub,2013-09-21 18:19:00,
2013-09-21 11:24:00,81.9,40.5,-100.00,South,190,14.0,32.0,23,0.00,,,0.00,meteohub,2013-09-21 18:24:00,
2013-09-21 11:29:00,82.2,40.8,-100.00,SSW,195,23.0,32.0,23,0.00,,,0.00,meteohub,2013-09-21 18:29:00,
2013-09-21 11:34:00,81.9,40.5,-100.00,SSW,208,17.0,32.0,23,0.00,,,0.00,meteohub,2013-09-21 18:34:00,
2013-09-21 11:39:00,82.0,40.6,-100.00,SSW,199,8.0,31.0,23,0.00,,,0.00,meteohub,2013-09-21 18:39:00,
2013-09-21 11:44:00,82.2,40.8,-100.00,South,186,22.0,30.0,23,0.00,,,0.00,meteohub,2013-09-21 18:44:00,
2013-09-21 11:49:00,82.6,41.0,-100.00,SSW,211,18.0,30.0,23,0.00,,,0.00,meteohub,2013-09-21 18:49:00,
2013-09-21 11:54:00,82.8,40.1,-100.00,South,186,24.0,27.0,22,0.00,,,0.00,meteohub,2013-09-21 18:54:00,
2013-09-21 11:59:00,82.6,39.9,-100.00,South,182,22.0,27.0,22,0.00,,,0.00,meteohub,2013-09-21 18:59:00,
2013-09-21 12:04:00,82.2,39.6,-100.00,South,184,31.0,31.0,22,0.00,,,0.00,meteohub,2013-09-21 19:04:00,
2013-09-21 12:09:00,82.2,39.6,-100.00,SSW,196,12.0,31.0,22,0.00,,,0.00,meteohub,2013-09-21 19:09:00,
2013-09-21 12:14:00,82.8,38.8,-100.00,SSW,207,10.0,31.0,21,0.00,,,0.00,meteohub,2013-09-21 19:14:00,
2013-09-21 12:19:00,82.9,36.5,-100.00,SSW,196,20.0,31.0,19,0.00,,,0.00,meteohub,2013-09-21 19:19:00,
2013-09-21 12:24:00,83.7,35.6,-100.00,West,279,6.0,30.0,18,0.00,,,0.00,meteohub,2013-09-21 19:24:00,
2013-09-21 12:29:00,83.8,34.3,-100.00,WSW,248,13.0,27.0,17,0.00,,,0.00,meteohub,2013-09-21 19:29:00,
2013-09-21 12:34:00,84.0,34.5,-100.00,WSW,254,16.0,27.0,17,0.00,,,0.00,meteohub,2013-09-21 19:34:00,
2013-09-21 12:39:00,84.0,34.5,-100.00,SW,235,18.0,24.0,17,0.00,,,0.00,meteohub,2013-09-21 19:39:00,
2013-09-21 12:44:00,84.0,34.5,-100.00,WNW,283,12.0,31.0,17,0.00,,,0.00,meteohub,2013-09-21 19:44:00,
2013-09-21 12:49:00,84.4,34.9,-100.00,WSW,241,11.0,31.0,17,0.00,,,0.00,meteohub,2013-09-21 19:49:00,
2013-09-21 12:54:00,84.4,34.9,-100.00,WSW,252,19.0,31.0,17,0.00,,,0.00,meteohub,2013-09-21 19:54:00,
2013-09-21 12:59:00,84.6,34.9,-100.00,West,262,14.0,31.0,17,0.00,,,0.00,meteohub,2013-09-21 19:59:00,
2013-09-21 13:04:00,84.9,35.2,-100.00,WSW,244,17.0,31.0,17,0.00,,,0.00,meteohub,2013-09-21 20:04:00,
2013-09-21 13:09:00,84.9,35.2,-100.00,WSW,251,11.0,26.0,17,0.00,,,0.00,meteohub,2013-09-21 20:09:00,
2013-09-21 13:14:00,84.7,35.1,-100.00,SW,232,17.0,24.0,17,0.00,,,0.00,meteohub,2013-09-21 20:14:00,
2013-09-21 13:19:00,84.9,35.2,-100.00,SW,226,18.0,24.0,17,0.00,,,0.00,meteohub,2013-09-21 20:19:00,
2013-09-21 13:24:00,85.3,35.6,-100.00,SW,217,12.0,24.0,17,0.00,,,0.00,meteohub,2013-09-21 20:24:00,
2013-09-21 13:29:00,85.5,28.9,-100.00,SW,215,15.0,28.0,13,0.00,,,0.00,meteohub,2013-09-21 20:29:00,
2013-09-21 13:34:00,86.2,29.7,-100.00,SSW,202,16.0,32.0,13,0.00,,,0.00,meteohub,2013-09-21 20:34:00,
2013-09-21 13:39:00,86.2,29.7,-100.00,SSW,207,23.0,36.0,13,0.00,,,0.00,meteohub,2013-09-21 20:39:00,
2013-09-21 13:44:00,86.2,31.5,-100.00,SSW,209,29.0,41.0,14,0.00,,,0.00,meteohub,2013-09-21 20:44:00,
2013-09-21 13:49:00,86.2,33.1,-100.00,SW,217,10.0,41.0,15,0.00,,,0.00,meteohub,2013-09-21 20:49:00,
2013-09-21 13:54:00,86.2,33.1,-100.00,SW,228,23.0,41.0,15,0.00,,,0.00,meteohub,2013-09-21 20:54:00,
2013-09-21 14:00:00,86.2,33.1,-100.00,WSW,246,18.0,35.0,15,0.00,,,0.00,meteohub,2013-09-21 21:00:00,
2013-09-21 14:05:00,86.4,34.9,-100.00,WSW,249,22.0,34.0,16,0.00,,,0.00,meteohub,2013-09-21 21:05:00,
2013-09-21 14:10:00,86.2,37.8,-100.00,West,274,10.0,34.0,18,0.00,,,0.00,meteohub,2013-09-21 21:10:00,
2013-09-21 14:15:00,85.5,38.5,-100.00,SSW,205,17.0,39.0,19,0.00,,,0.00,meteohub,2013-09-21 21:15:00,
2013-09-21 14:20:00,84.9,38.1,-100.00,West,265,21.0,39.0,19,0.00,,,0.00,meteohub,2013-09-21 21:20:00,
2013-09-21 14:25:00,84.6,40.3,-100.00,West,259,23.0,31.0,21,0.00,,,0.00,meteohub,2013-09-21 21:25:00,
2013-09-21 14:30:00,84.0,39.9,-100.00,West,278,16.0,31.0,21,0.00,,,0.00,meteohub,2013-09-21 21:30:00,
2013-09-21 14:35:00,83.8,39.7,-100.00,West,264,24.0,35.0,21,0.00,,,0.00,meteohub,2013-09-21 21:35:00,
2013-09-21 14:40:00,83.1,40.3,-100.00,WNW,286,25.0,35.0,22,0.00,,,0.00,meteohub,2013-09-21 21:40:00,
2013-09-21 14:45:00,82.8,40.1,-100.00,WNW,294,21.0,37.0,22,0.00,,,0.00,meteohub,2013-09-21 21:45:00,
2013-09-21 14:50:00,82.9,40.1,-100.00,WSW,257,19.0,37.0,22,0.00,,,0.00,meteohub,2013-09-21 21:50:00,
2013-09-21 14:55:00,83.1,40.3,-100.00,WSW,246,20.0,34.0,22,0.00,,,0.00,meteohub,2013-09-21 21:55:00,
2013-09-21 15:00:00,82.9,40.1,-100.00,WSW,242,16.0,34.0,22,0.00,,,0.00,meteohub,2013-09-21 22:00:00,
2013-09-21 15:05:00,82.8,40.1,-100.00,WSW,255,23.0,34.0,22,0.00,,,0.00,meteohub,2013-09-21 22:05:00,
2013-09-21 15:10:00,82.9,40.1,-100.00,WSW,255,17.0,32.0,22,0.00,,,0.00,meteohub,2013-09-21 22:10:00,
2013-09-21 15:15:00,83.3,40.5,-100.00,SW,215,8.0,36.0,22,0.00,,,0.00,meteohub,2013-09-21 22:15:00,
2013-09-21 15:20:00,83.5,40.6,-100.00,WSW,257,16.0,36.0,22,0.00,,,0.00,meteohub,2013-09-21 22:20:00,
2013-09-21 15:25:00,83.7,40.8,-100.00,SW,233,11.0,30.0,22,0.00,,,0.00,meteohub,2013-09-21 22:25:00,
2013-09-21 15:30:00,83.7,39.6,-100.00,WSW,255,12.0,30.0,21,0.00,,,0.00,meteohub,2013-09-21 22:30:00,
2013-09-21 15:35:00,83.7,39.6,-100.00,WSW,243,15.0,30.0,21,0.00,,,0.00,meteohub,2013-09-21 22:35:00,
2013-09-21 15:40:00,83.7,40.8,-100.00,West,273,22.0,29.0,22,0.00,,,0.00,meteohub,2013-09-21 22:40:00,
2013-09-21 15:45:00,83.5,41.7,-100.00,WSW,258,12.0,28.0,23,0.00,,,0.00,meteohub,2013-09-21 22:45:00,
2013-09-21 15:50:00,83.7,40.8,-100.00,SW,220,22.0,31.0,22,0.00,,,0.00,meteohub,2013-09-21 22:50:00,
2013-09-21 15:55:00,83.7,41.9,-100.00,SW,223,8.0,30.0,23,0.00,,,0.00,meteohub,2013-09-21 22:55:00,
2013-09-21 16:00:00,83.7,41.9,-100.00,SW,217,10.0,30.0,23,0.00,,,0.00,meteohub,2013-09-21 23:00:00,
2013-09-21 16:05:00,83.7,41.9,-100.00,West,259,28.0,30.0,23,0.00,,,0.00,meteohub,2013-09-21 23:05:00,
2013-09-21 16:10:00,83.7,41.9,-100.00,SW,225,21.0,34.0,23,0.00,,,0.00,meteohub,2013-09-21 23:10:00,
2013-09-21 16:15:00,83.5,43.0,-100.00,West,281,13.0,34.0,24,0.00,,,0.00,meteohub,2013-09-21 23:15:00,
2013-09-21 16:20:00,82.8,42.3,-100.00,WSW,256,27.0,32.0,24,0.00,,,0.00,meteohub,2013-09-21 23:20:00,
2013-09-21 16:25:00,81.9,41.5,-100.00,West,267,26.0,37.0,24,0.00,,,0.00,meteohub,2013-09-21 23:25:00,
2013-09-21 16:30:00,81.0,41.9,-100.00,West,262,26.0,37.0,25,0.00,,,0.00,meteohub,2013-09-21 23:30:00,
2013-09-21 16:35:00,80.4,40.3,-100.00,West,267,35.0,37.0,24,0.00,,,0.00,meteohub,2013-09-21 23:35:00,
2013-09-21 16:40:00,80.1,40.1,-100.00,West,272,36.0,37.0,24,0.00,,,0.00,meteohub,2013-09-21 23:40:00,
2013-09-21 16:45:00,79.9,39.9,-100.00,SW,233,20.0,42.0,24,0.00,,,0.00,meteohub,2013-09-21 23:45:00,
2013-09-21 16:50:00,79.9,37.6,-100.00,West,271,19.0,42.0,22,0.00,,,0.00,meteohub,2013-09-21 23:50:00,
2013-09-21 16:55:00,79.7,37.6,-100.00,West,265,29.0,41.0,22,0.00,,,0.00,meteohub,2013-09-21 23:55:00,
2013-09-21 17:00:00,79.3,37.2,-100.00,WSW,252,17.0,38.0,22,0.00,,,0.00,meteohub,2013-09-22 00:00:00,
2013-09-21 17:05:00,79.3,36.0,-100.00,West,265,35.0,38.0,21,0.00,,,0.00,meteohub,2013-09-22 00:05:00,
2013-09-21 17:10:00,79.2,35.8,-100.00,West,278,17.0,39.0,21,0.00,,,0.00,meteohub,2013-09-22 00:10:00,
2013-09-21 17:15:00,79.0,35.8,-100.00,WSW,252,19.0,39.0,21,0.00,,,0.00,meteohub,2013-09-22 00:15:00,
2013-09-21 17:20:00,79.0,35.8,-100.00,West,271,26.0,39.0,21,0.00,,,0.00,meteohub,2013-09-22 00:20:00,
2013-09-21 17:25:00,78.8,35.6,-100.00,West,271,29.0,35.0,21,0.00,,,0.00,meteohub,2013-09-22 00:25:00,
2013-09-21 17:30:00,78.3,34.0,-100.00,West,268,29.0,35.0,20,0.00,,,0.00,meteohub,2013-09-22 00:30:00,
2013-09-21 17:35:00,78.1,33.8,-100.00,WNW,287,18.0,35.0,20,0.00,,,0.00,meteohub,2013-09-22 00:35:00,
2013-09-21 17:40:00,77.7,33.4,-100.00,West,270,19.0,35.0,20,0.00,,,0.00,meteohub,2013-09-22 00:40:00,
2013-09-21 17:45:00,77.7,33.4,-100.00,WSW,257,24.0,32.0,20,0.00,,,0.00,meteohub,2013-09-22 00:45:00,
2013-09-21 17:50:00,77.7,34.7,-100.00,West,268,19.0,31.0,21,0.00,,,0.00,meteohub,2013-09-22 00:50:00,
2013-09-21 17:55:00,77.5,35.8,-100.00,West,275,14.0,32.0,22,0.00,,,0.00,meteohub,2013-09-22 00:55:00,
2013-09-21 18:00:00,77.2,35.4,-100.00,West,271,20.0,34.0,22,0.00,,,0.00,meteohub,2013-09-22 01:00:00,
2013-09-21 18:05:00,76.8,35.1,-100.00,WSW,253,18.0,34.0,22,0.00,,,0.00,meteohub,2013-09-22 01:05:00,
2013-09-21 18:10:00,76.5,36.0,-100.00,West,265,14.0,34.0,23,0.00,,,0.00,meteohub,2013-09-22 01:10:00,
2013-09-21 18:15:00,75.9,36.5,-100.00,WSW,256,22.0,34.0,24,0.00,,,0.00,meteohub,2013-09-22 01:15:00,
2013-09-21 18:20:00,75.7,36.3,-100.00,West,259,11.0,32.0,24,0.00,,,0.00,meteohub,2013-09-22 01:20:00,
2013-09-21 18:25:00,75.6,37.2,-100.00,WNW,283,25.0,34.0,25,0.00,,,0.00,meteohub,2013-09-22 01:25:00,
2013-09-21 18:30:00,75.2,38.8,-100.00,West,275,16.0,34.0,27,0.00,,,0.00,meteohub,2013-09-22 01:30:00,
2013-09-21 18:36:00,74.7,38.5,-100.00,West,275,22.0,34.0,27,0.00,,,0.00,meteohub,2013-09-22 01:36:00,
2013-09-21 18:41:00,73.9,38.8,-100.00,West,269,25.0,32.0,28,0.00,,,0.00,meteohub,2013-09-22 01:41:00,
2013-09-21 18:45:00,73.6,39.4,-100.00,West,275,16.0,32.0,29,0.00,,,0.00,meteohub,2013-09-22 01:45:00,
2013-09-21 18:51:00,73.4,40.1,-100.00,West,273,21.0,32.0,30,0.00,,,0.00,meteohub,2013-09-22 01:51:00,
2013-09-21 18:56:00,73.2,40.8,-100.00,West,266,23.0,29.0,31,0.00,,,0.00,meteohub,2013-09-22 01:56:00,
2013-09-21 19:01:00,73.0,40.6,-100.00,WSW,256,28.0,29.0,31,0.00,,,0.00,meteohub,2013-09-22 02:01:00,
2013-09-21 19:06:00,72.9,40.5,-100.00,West,261,22.0,36.0,31,0.00,,,0.00,meteohub,2013-09-22 02:06:00,
2013-09-21 19:11:00,72.5,40.1,-100.00,West,273,30.0,38.0,31,0.00,,,0.00,meteohub,2013-09-22 02:11:00,
2013-09-21 19:16:00,72.3,40.8,-100.00,WSW,252,28.0,38.0,32,0.00,,,0.00,meteohub,2013-09-22 02:16:00,
2013-09-21 19:21:00,72.0,40.5,-100.00,WSW,257,33.0,36.0,32,0.00,,,0.00,meteohub,2013-09-22 02:21:00,
2013-09-21 19:26:00,72.0,40.5,-100.00,West,261,23.0,36.0,32,0.00,,,0.00,meteohub,2013-09-22 02:26:00,
2013-09-21 19:31:00,71.4,40.8,-100.00,West,267,23.0,36.0,33,0.00,,,0.00,meteohub,2013-09-22 02:31:00,
2013-09-21 19:36:00,71.2,40.6,-100.00,WNW,284,19.0,36.0,33,0.00,,,0.00,meteohub,2013-09-22 02:36:00,
2013-09-21 19:41:00,70.7,41.0,-100.00,West,263,24.0,36.0,34,0.00,,,0.00,meteohub,2013-09-22 02:41:00,
2013-09-21 19:46:00,70.3,41.4,-100.00,WSW,258,30.0,37.0,35,0.00,,,0.00,meteohub,2013-09-22 02:46:00,
2013-09-21 19:51:00,70.2,41.9,-100.00,West,271,29.0,37.0,36,0.00,,,0.00,meteohub,2013-09-22 02:51:00,
2013-09-21 19:56:00,70.0,41.7,-100.00,WSW,254,16.0,37.0,36,0.00,,,0.00,meteohub,2013-09-22 02:56:00,
2013-09-21 20:01:00,70.0,42.4,-100.00,West,279,20.0,32.0,37,0.00,,,0.00,meteohub,2013-09-22 03:01:00,
2013-09-21 20:07:00,69.6,42.3,-100.00,WSW,249,17.0,32.0,37,0.00,,,0.00,meteohub,2013-09-22 03:07:00,
2013-09-21 20:12:00,69.1,42.4,-100.00,WSW,238,24.0,31.0,38,0.00,,,0.00,meteohub,2013-09-22 03:12:00,
2013-09-21 20:17:00,68.5,42.6,-100.00,West,281,28.0,31.0,39,0.00,,,0.00,meteohub,2013-09-22 03:17:00,
2013-09-21 20:22:00,68.5,41.9,-100.00,WSW,257,20.0,34.0,38,0.00,,,0.00,meteohub,2013-09-22 03:22:00,
2013-09-21 20:27:00,68.4,41.7,-100.00,WSW,252,22.0,34.0,38,0.00,,,0.00,meteohub,2013-09-22 03:27:00,
2013-09-21 20:32:00,68.2,41.5,-100.00,WSW,248,22.0,34.0,38,0.00,,,0.00,meteohub,2013-09-22 03:32:00,
2013-09-21 20:37:00,68.2,41.5,-100.00,WSW,252,25.0,34.0,38,0.00,,,0.00,meteohub,2013-09-22 03:37:00,
2013-09-21 20:42:00,68.0,41.4,-100.00,WSW,244,26.0,32.0,38,0.00,,,0.00,meteohub,2013-09-22 03:42:00,
2013-09-21 20:47:00,67.8,41.4,-100.00,WSW,253,17.0,32.0,38,0.00,,,0.00,meteohub,2013-09-22 03:47:00,
2013-09-21 20:52:00,67.6,41.2,-100.00,West,259,30.0,37.0,38,0.00,,,0.00,meteohub,2013-09-22 03:52:00,
2013-09-21 20:57:00,67.5,41.0,-100.00,WSW,247,21.0,41.0,38,0.00,,,0.00,meteohub,2013-09-22 03:57:00,
2013-09-21 21:01:00,67.5,41.0,-100.00,SW,228,8.0,41.0,38,0.00,,,0.00,meteohub,2013-09-22 04:01:00,
2013-09-21 21:06:00,67.1,41.4,-100.00,West,275,24.0,41.0,39,0.00,,,0.00,meteohub,2013-09-22 04:06:00,
2013-09-21 21:11:00,66.7,41.0,-100.00,West,267,18.0,32.0,39,0.00,,,0.00,meteohub,2013-09-22 04:11:00,
2013-09-21 21:16:00,66.6,40.8,-100.00,WSW,244,10.0,32.0,39,0.00,,,0.00,meteohub,2013-09-22 04:16:00,
2013-09-21 21:21:00,66.4,40.6,-100.00,West,262,20.0,26.0,39,0.00,,,0.00,meteohub,2013-09-22 04:21:00,
2013-09-21 21:26:00,66.2,41.2,-100.00,West,269,18.0,25.0,40,0.00,,,0.00,meteohub,2013-09-22 04:26:00,
2013-09-21 21:31:00,66.0,40.3,-100.00,WSW,242,26.0,29.0,39,0.00,,,0.00,meteohub,2013-09-22 04:31:00,
2013-09-21 21:36:00,65.8,40.8,-100.00,WSW,248,21.0,34.0,40,0.00,,,0.00,meteohub,2013-09-22 04:36:00,
2013-09-21 21:41:00,65.7,40.6,-100.00,WSW,244,12.0,34.0,40,0.00,,,0.00,meteohub,2013-09-22 04:41:00,
2013-09-21 21:46:00,65.5,40.5,-100.00,WSW,240,17.0,34.0,40,0.00,,,0.00,meteohub,2013-09-22 04:46:00,
2013-09-21 21:51:00,65.1,40.3,-100.00,SW,233,10.0,29.0,40,0.00,,,0.00,meteohub,2013-09-22 04:51:00,
2013-09-21 21:56:00,65.1,40.3,-100.00,West,259,15.0,29.0,40,0.00,,,0.00,meteohub,2013-09-22 04:56:00,
2013-09-21 22:01:00,64.9,40.6,-100.00,SW,234,8.0,28.0,41,0.00,,,0.00,meteohub,2013-09-22 05:01:00,
2013-09-21 22:06:00,64.8,40.5,-100.00,WSW,254,13.0,31.0,41,0.00,,,0.00,meteohub,2013-09-22 05:06:00,
2013-09-21 22:11:00,64.8,40.5,-100.00,West,265,32.0,34.0,41,0.00,,,0.00,meteohub,2013-09-22 05:11:00,
2013-09-21 22:16:00,64.9,40.6,-100.00,WSW,254,35.0,42.0,41,0.00,,,0.00,meteohub,2013-09-22 05:16:00,
2013-09-21 22:21:00,64.9,40.6,-100.00,West,267,30.0,42.0,41,0.00,,,0.00,meteohub,2013-09-22 05:21:00,
2013-09-21 22:26:00,64.9,40.6,-100.00,WSW,244,26.0,41.0,41,0.00,,,0.00,meteohub,2013-09-22 05:26:00,
2013-09-21 22:31:00,64.9,41.4,-100.00,West,260,28.0,41.0,42,0.00,,,0.00,meteohub,2013-09-22 05:31:00,
2013-09-21 22:36:00,64.9,41.4,-100.00,WSW,252,31.0,40.0,42,0.00,,,0.00,meteohub,2013-09-22 05:36:00,
2013-09-21 22:41:00,64.9,41.4,-100.00,WSW,257,19.0,44.0,42,0.00,,,0.00,meteohub,2013-09-22 05:41:00,
2013-09-21 22:46:00,64.9,41.4,-100.00,WSW,244,34.0,44.0,42,0.00,,,0.00,meteohub,2013-09-22 05:46:00,
2013-09-21 22:51:00,64.9,41.9,-100.00,WSW,252,32.0,44.0,43,0.00,,,0.00,meteohub,2013-09-22 05:51:00,
2013-09-21 22:56:00,64.8,41.7,-100.00,WSW,256,34.0,40.0,43,0.00,,,0.00,meteohub,2013-09-22 05:56:00,
2013-09-21 23:01:00,64.8,42.3,-100.00,SW,227,18.0,40.0,44,0.00,,,0.00,meteohub,2013-09-22 06:01:00,
2013-09-21 23:06:00,64.6,42.3,-100.00,WSW,258,13.0,40.0,44,0.00,,,0.00,meteohub,2013-09-22 06:06:00,
2013-09-21 23:12:00,64.4,42.1,-100.00,SW,222,23.0,40.0,44,0.00,,,0.00,meteohub,2013-09-22 06:12:00,
2013-09-21 23:17:00,64.2,41.9,-100.00,WSW,247,19.0,32.0,44,0.00,,,0.00,meteohub,2013-09-22 06:17:00,
2013-09-21 23:22:00,64.2,42.4,-100.00,SW,232,14.0,31.0,45,0.00,,,0.00,meteohub,2013-09-22 06:22:00,
2013-09-21 23:27:00,64.0,42.3,-100.00,WSW,240,21.0,29.0,45,0.00,,,0.00,meteohub,2013-09-22 06:27:00,
2013-09-21 23:32:00,64.0,41.7,-100.00,WSW,242,12.0,28.0,44,0.00,,,0.00,meteohub,2013-09-22 06:32:00,
2013-09-21 23:37:00,63.9,41.5,-100.00,WSW,257,17.0,26.0,44,0.00,,,0.00,meteohub,2013-09-22 06:37:00,
2013-09-21 23:42:00,63.9,41.0,-100.00,WSW,256,17.0,26.0,43,0.00,,,0.00,meteohub,2013-09-22 06:42:00,
2013-09-21 23:47:00,63.7,40.1,-100.00,West,263,19.0,30.0,42,0.00,,,0.00,meteohub,2013-09-22 06:47:00,
2013-09-21 23:52:00,63.9,40.3,-100.00,SW,233,18.0,30.0,42,0.00,,,0.00,meteohub,2013-09-22 06:52:00,
2013-09-21 23:57:00,63.9,41.0,-100.00,West,261,15.0,30.0,43,0.00,,,0.00,meteohub,2013-09-22 06:57:00,